Content
SEND FEEDBACK

Daily
Averages
Monthly
Summary
United States of America

UPI, GUAM


Home > North America > United States > Guam
Elevation: 53 feet     Latitude: 13 34N     Longitude: 144 55E

WEATHER
 
SELECT A DAY
Number of Records: 213,834;   Date Range: 1/1/95 - 10/22/14
 
SHARE

PRINT THIS DATA

[ ← Previous Day ]
WEATHER ALMANAC - MARCH 1, 2013
[ Next Day → ]
[ °C ]   °F
Weather ElementAverageHighLow
Temperature80.6 °F86 °F (2:54 pm)75.2 °F (6:13 am)
Dewpoint74.5 °F75.4 °F (12:54 am)71.6 °F (4:01 pm)
Humidity82 %100 % (6:13 am)63 % (2:54 pm)
Barometer29.88 in29.93 in (8:51 am)29.83 in (3:54 pm)
Wind Speed12.4 mph19.6 mph (1:54 pm)
Wind Gust23 mph (12:54 pm)
Weather ElementAverage
Visibility10 mi
Wind DirectionENE (73.9 °)

Weather ElementTotal
Precipitation---
Cooling Degree Days15.6 (Base 65)
Growing Degree Days30.6 (Base 50)
Averaged from 36 records on March 1, 2013
WEATHER CONDITIONS BREAKOUT
WIND DIRECTION BREAKOUT
WEATHER BY HOUR - MARCH 1, 2013
[ °C ]   °F
Local TimeTemperatureDewpointHumidityBarometerVisibilityWind DirectionWind SpeedGust SpeedPrecipitationEventsConditions
12:27 AM78.8 °F75.2 °F89 %29.91 in10.0 miEast (80°)10.4 mphScattered Clouds
12:54 AM79.3 °F75.4 °F88 %29.88 in10.0 miENE (60°)8.1 mphScattered Clouds
1:04 AM77.0 °F75.2 °F94 %29.90 in10.0 miENE (70°)6.9 mphMostly Cloudy
1:54 AM79.2 °F75.2 °F88 %29.87 in10.0 miEast (80°)9.2 mph0.00 inScattered Clouds
2:54 AM78.8 °F74.8 °F88 %29.86 in10.0 miEast (80°)8.1 mphPartly Cloudy
3:54 AM78.6 °F74.8 °F88 %29.86 in10.0 miEast (80°)6.9 mphPartly Cloudy
4:54 AM75.9 °F75.0 °F97 %29.86 in10.0 miENE (70°)8.1 mphScattered Clouds
5:17 AM78.8 °F75.2 °F89 %29.88 in10.0 miENE (70°)9.2 mphMostly Cloudy
5:54 AM78.6 °F74.8 °F88 %29.86 in10.0 miENE (70°)8.1 mphPartly Cloudy
6:13 AM75.2 °F75.2 °F100 %29.88 in10.0 miENE (70°)9.2 mph0.00 inMostly Cloudy
6:20 AM78.8 °F75.2 °F89 %29.88 in10.0 miENE (70°)9.2 mph0.00 inScattered Clouds
6:54 AM78.3 °F74.5 °F88 %29.87 in10.0 miENE (70°)11.5 mph0.00 inClear
7:54 AM77.0 °F73.9 °F90 %29.89 in10.0 miENE (70°)11.5 mphClear
8:51 AM82.4 °F75.2 °F79 %29.93 in10.0 miNE (50°)13.8 mphMostly Cloudy
8:54 AM82.9 °F75.0 °F77 %29.91 in10.0 miENE (60°)13.8 mphMostly Cloudy
9:02 AM78.8 °F73.4 °F83 %29.93 in10.0 miENE (70°)12.7 mphScattered Clouds
9:54 AM82.9 °F74.8 °F76 %29.91 in10.0 miENE (70°)16.1 mphPartly Cloudy
10:54 AM81.0 °F73.9 °F79 %29.91 in10.0 miEast (90°)15.0 mph21.9 mphMostly Cloudy
11:10 AM82.4 °F73.4 °F74 %29.92 in10.0 miEast (80°)15.0 mphScattered Clouds
11:54 AM81.0 °F72.0 °F74 %29.88 in10.0 miEast (90°)16.1 mphScattered Clouds
12:54 PM82.0 °F73.9 °F76 %29.87 in10.0 miEast (90°)16.1 mph23.0 mphScattered Clouds
1:02 PM82.4 °F73.4 °F74 %29.89 in10.0 miEast (90°)15.0 mphMostly Cloudy
1:37 PM84.2 °F75.2 °F74 %29.88 in10.0 miEast (80°)18.4 mph23.0 mphMostly Cloudy
1:54 PM85.8 °F75.4 °F71 %29.85 in10.0 miEast (80°)19.6 mphMostly Cloudy
2:54 PM86.0 °F72.0 °F63 %29.84 in10.0 miEast (90°)15.0 mphMostly Cloudy
3:49 PM86.0 °F75.2 °F70 %29.85 in10.0 miENE (70°)18.4 mph23.0 mphMostly Cloudy
3:54 PM84.2 °F74.5 °F72 %29.83 in10.0 miEast (80°)16.1 mphMostly Cloudy
4:01 PM82.4 °F71.6 °F70 %29.85 in10.0 miENE (60°)15.0 mphScattered Clouds
4:54 PM84.0 °F74.7 °F73 %29.84 in10.0 miENE (70°)16.1 mphPartly Cloudy
5:54 PM81.9 °F75.0 °F80 %29.85 in10.0 miEast (80°)15.0 mphPartly Cloudy
6:54 PM80.2 °F75.0 °F84 %29.87 in10.0 miENE (70°)11.5 mph0.00 inPartly Cloudy
7:54 PM80.1 °F74.8 °F84 %29.88 in10.0 miENE (70°)12.7 mphPartly Cloudy
8:54 PM79.5 °F74.3 °F84 %29.89 in10.0 miENE (70°)11.5 mphPartly Cloudy
9:54 PM79.2 °F74.5 °F86 %29.90 in10.0 miENE (60°)10.4 mphPartly Cloudy
10:54 PM79.0 °F74.8 °F87 %29.90 in10.0 miENE (70°)6.9 mphScattered Clouds
11:54 PM79.0 °F74.3 °F85 %29.90 in10.0 miEast (80°)9.2 mphPartly Cloudy
Hourly data recorded from PGUM, located miles away from Upi, Guam







STORIES FROM OUR PARTNERS